Location: Cisewo
(53.3833°N, 14.9000°E)
Time: 15:19:42
(UTC+00:00)

NOAA 18 - Pass Details

Date: 26 September 2021
Orbit: 841 x 860 km, 99.0° (Epoch: 25 October)

Event Time Altitude Azimuth Distance (km) Brightness Sun altitude
Exits shadow 19:31:32 51° 81° (E) 1,065 5.4 -23.9°
Maximum altitude 19:31:56 52° 65° (ENE) 1,051 5.4 -24.0°
Drops below altitude 10° 19:37:15 10° 351° (N) 2,488 8.2 -24.6°
Sets 19:39:41 0° 347° (NNW) 3,431 9.1 -24.9°
